Location: Orange Harbor Mobile Home Park
(26.6923°N, 81.7937°W)
Time: 07:06:25
(UTC+00:00)

CENTAUR R/B - Pass Details

Date: 19 September 2020
Orbit: 753 x 1435 km, 63.5° (Epoch: 26 October)

Event Time Altitude Azimuth Distance (km) Brightness Sun altitude
Rises 02:39:58 0° 336° (NNW) 4,310 6.4 -42.2°
Reaches altitude 10° 02:42:47 10° 339° (NNW) 3,403 5.7 -42.7°
Enters shadow 02:47:16 35° 351° (N) 2,097 4.3 -43.6°
